Arroyo de Enmedio, Mexico

9:31 PM MDT en Septiembre 19, 2018 (GMT -0600)
Arroyo de Enmedio

Tiempo Historia de 76258 - Julio, 2018

Change the Weather History Date:

Jueves, Julio 12, 2018

  Actual Average Record
Temperature  
Temperatura media 89 ° F -  
Temperatura máxima 102 ° F - - ()
Temperatura mínima 76 ° F - - ()
Cooling Degree Days 24    
Growing Degree Days 39 (Base 50)    
Moisture  
Punto de rocío 68 ° F    
Average Humidity 46    
Maximum Humidity 96    
Minimum Humidity 29    
Precipitación  
Precipitación 0.00 pul - - ()
Presión al nivel del mar  
Presión al nivel del mar 29.88 pul    
Viento  
Velocidad del viento 7 mph ()    
Velocidad máxima del viento 22 mph    
Max Gust Speed -    
Visibilidad 10.2 Millas    
Eventos      
T = Trace of Precipitation, MM = Missing Value Source: Averaged Metar Reports

Daily Weather History Graph

Daily Weather History Graph

Search for Another Location

Airport or City:

Astronomía

Jul. 12, 2018 Salida Puesta
Hora real 6:32 AM MDT 8:17 PM MDT
Crepúsculo civil 6:06 AM MDT 8:43 PM MDT
Crepúsculo náutico 5:35 AM MDT 9:15 PM MDT
Crepúsculo astronómico 5:02 AM MDT 9:48 PM MDT
Luna 6:02 AM MDT (7/12) 8:06 PM MDT (7/12)
Horas de luz 14h 37m
Horas de luz
13h 44m
Creciente menguante, 0% of the Moon is Illuminated
Jul 12
Creciente menguante
Jul 12
Nueva
Jul 19
Cuarto creciente
Jul 27
Luna llena
Ago 4
Cuarto menguante

Hourly Weather History & Observations

Hora (MDT) Temp. Índice de calor Punto de rocío Humedad Presión Visibilidad Wind Dir Velocidad del viento Velocidad de ráfagas Precip Eventos Condiciones
5:50 AM 78 ° F - 77 ° F 96% 29.87 pul 3 mi NE 4.5 mph - -   Desconocido
7:04 AM 78.8 ° F - 73.4 ° F 83% 29.88 pul 10.0 mi ENE 3.5 mph - N/A   Parcialmente nublado
7:42 AM 84.2 ° F 90.9 ° F 73.4 ° F 70% 29.90 pul 10.0 mi Este 3.5 mph - N/A   Parcialmente nublado
8:40 AM 86.0 ° F 91.8 ° F 71.6 ° F 62% 29.91 pul 10.0 mi Este 8.1 mph - N/A   Parcialmente nublado
8:50 AM 88 ° F - 74 ° F 54% 29.92 pul 16 mi SE 8.9 mph - -   Despejado
9:44 AM 89.6 ° F 94.7 ° F 69.8 ° F 52% 29.92 pul 10.0 mi SE 4.6 mph - N/A   Nubes dispersas
10:42 AM 91.4 ° F 95.4 ° F 68.0 ° F 46% 29.91 pul 10.0 mi SE 5.8 mph - N/A   Parcialmente nublado
11:46 AM 95.0 ° F 97.0 ° F 64.4 ° F 36% 29.91 pul 10.0 mi SO 2.3 mph - N/A   Parcialmente nublado
11:50 AM 98 ° F - 70 ° F 31% 29.92 pul 16 mi Sur 13.4 mph - -   Nubes dispersas
12:47 PM 96.8 ° F 100.7 ° F 66.2 ° F 37% 29.89 pul 10.0 mi Sur 9.2 mph - N/A   Muy nublado
1:42 PM 96.8 ° F 99.0 ° F 64.4 ° F 34% 29.87 pul 10.0 mi Sur 3.5 mph - N/A   Muy nublado
2:42 PM 96.8 ° F 103.1 ° F 69.8 ° F 41% 29.86 pul 10.0 mi Sur 12.7 mph - N/A   Nubes dispersas
2:50 PM 99 ° F - 74 ° F 36% 29.88 pul 16 mi SO 22.4 mph - -   Nubes dispersas
3:42 PM 96.8 ° F 101.8 ° F 68.0 ° F 39% 29.84 pul 10.0 mi SSO 13.8 mph - N/A   Parcialmente nublado
4:42 PM 96.8 ° F 99.0 ° F 64.4 ° F 34% 29.83 pul 10.0 mi Sur 13.8 mph - N/A   Nubes dispersas
5:41 PM 95.0 ° F 97.0 ° F 64.4 ° F 36% 29.84 pul 10.0 mi SO 8.1 mph - N/A   Muy nublado
5:50 PM 97 ° F - 68 ° F 29% 29.84 pul 12 mi SO 20.1 mph - -   Nubes dispersas
6:40 PM 93.2 ° F 93.3 ° F 60.8 ° F 34% 29.84 pul 10.0 mi SO 9.2 mph - N/A   Muy nublado
7:41 PM 91.4 ° F 91.4 ° F 60.8 ° F 36% 29.85 pul 10.0 mi Oeste 4.6 mph - N/A   Muy nublado
8:50 PM 88 ° F - 65 ° F 36% 29.87 pul 2 mi SO 2.2 mph - -   Desconocido